Location: Kapuskasing
(49.3803°N, 82.4001°W)
Time: 14:53:24
(UTC-05:00)

RS-44 - Pass Details

Date: 18 December 2025
Orbit: 1174 x 1511 km, 82.5° (Epoch: 21 January)

Event Time Altitude Azimuth Distance (km) Brightness Sun altitude
Exits shadow 03:20:18 13° 358° (N) 3,328 ? -47.3°
Drops below altitude 10° 03:21:10 10° 1° (N) 3,575 ? -47.2°
Sets 03:24:17 0° 9° (N) 4,515 ? -46.7°
